Stations météo

réclame
Mon MeteoGroup
Cap-de-la Heve, France (7028): Température de l'air & dewpoint: 17.10.2018 11:00:00 - 23.10.2018 11:00:00 (CEST)Cap-de-la Heve, France (7028): Température de l'air 5cm: 17.10.2018 11:00:00 - 23.10.2018 11:00:00 (CEST)Cap-de-la Heve, France (7028): Vitesse du vent & gusts: 17.10.2018 11:00:00 - 23.10.2018 11:00:00 (CEST)Cap-de-la Heve, France (7028): Direction du vent: 17.10.2018 11:00:00 - 23.10.2018 11:00:00 (CEST)Cap-de-la Heve, France (7028): reduced air pressure: 17.10.2018 11:00:00 - 23.10.2018 11:00:00 (CEST)Cap-de-la Heve, France (7028): visibility: 17.10.2018 11:00:00 - 23.10.2018 11:00:00 (CEST)Cap-de-la Heve, France (7028): Quantités de précipitations: 17.10.2018 11:00:00 - 23.10.2018 11:00:00 (CEST)
Date & Time tt [°C] td [°C] tt 5cm [°C] ff [km/h] ff [knt] fx [km/h] fx [knt] dd ppp [hPa] vv [km] rr [mm]
23.10.2018 11:00:00 13,7 8,7 13,1 14 8 36 20 NW 1034,2 12 0,0
23.10.2018 10:00:00 12,9 7,6 11,4 19 10 32 17 NW 1034,3 - 0,0
23.10.2018 09:00:00 12,5 5,9 10,5 16 8 29 16 NW 1034,4 - 0,0
23.10.2018 08:00:00 12,1 5,5 10,2 14 8 23 12 NW 1034,3 - 0,0
23.10.2018 07:00:00 11,8 5,9 8,7 10 6 19 10 NW 1034,7 - 0,0
23.10.2018 06:00:00 11,2 5,1 7,9 7 4 13 7 NNW 1035,0 - 0,0
23.10.2018 05:00:00 10,1 4,9 7,7 5 3 10 5 N 1035,4 20 0,0
23.10.2018 04:00:00 10,1 4,9 8,7 8 4 12 7 NE 1035,9 - 0,0
23.10.2018 03:00:00 10,0 5,0 8,9 8 5 16 9 NE 1036,4 - 0,0
23.10.2018 02:00:00 10,3 5,1 8,8 10 5 18 10 NNE 1037,1 15 0,0
23.10.2018 01:00:00 10,5 5,0 9,1 8 4 19 11 NNE 1036,8 - 0,0
23.10.2018 00:00:00 10,3 5,3 8,9 7 4 14 8 NNE 1037,4 - 0,0
22.10.2018 23:00:00 11,0 5,3 10,1 8 4 19 10 NE 1037,2 15 0,0
22.10.2018 22:00:00 11,0 5,5 9,6 10 6 19 11 NNE 1037,1 - 0,0
22.10.2018 21:00:00 10,7 5,7 9,4 10 6 21 12 NE 1036,6 - 0,0
22.10.2018 20:00:00 11,2 5,5 10,2 10 6 26 14 NNE 1036,3 - 0,0
22.10.2018 19:00:00 11,8 6,1 11,2 12 6 31 17 NNE 1036,1 - 0,0
22.10.2018 18:00:00 12,7 6,1 12,8 16 8 38 20 NE 1035,7 - 0,0
22.10.2018 17:00:00 13,0 6,3 14,2 18 10 41 22 NNE 1035,2 15 0,0
22.10.2018 16:00:00 13,5 6,4 16,3 18 10 43 23 NNE 1035,2 - 0,0
22.10.2018 15:00:00 13,7 7,0 14,1 20 11 40 22 NE 1034,9 - 0,0
22.10.2018 14:00:00 13,0 9,1 14,3 16 9 36 19 NE 1034,8 - 0,0
22.10.2018 13:00:00 12,6 9,4 12,1 17 9 39 21 NE 1035,1 - 0,0
22.10.2018 12:00:00 11,8 10,5 11,8 19 10 40 22 NNE 1034,8 - 0,0
22.10.2018 11:00:00 11,8 10,5 11,6 21 11 43 23 NNE 1034,0 - 0,0
22.10.2018 10:00:00 11,8 10,9 11,6 15 8 36 20 NNE 1033,5 - 0,0
22.10.2018 09:00:00 12,5 11,7 12,2 14 8 38 21 NNE 1032,5 - 0,2
22.10.2018 08:00:00 13,6 10,9 13,0 18 10 38 21 NNE 1031,3 - 0,0
22.10.2018 07:00:00 13,6 12,5 13,2 20 11 45 24 NE 1030,7 - 0,0
22.10.2018 06:00:00 14,1 13,0 13,8 18 10 36 20 NNE 1029,8 - 0,0
22.10.2018 05:00:00 14,3 12,7 13,6 13 7 34 19 NNE 1029,5 - 0,0
22.10.2018 04:00:00 14,1 12,0 13,4 14 7 28 15 NNE 1029,1 - 0,0
22.10.2018 03:00:00 14,2 12,8 13,5 9 5 20 11 NNE 1029,1 - 0,0
22.10.2018 02:00:00 14,7 13,4 13,9 8 4 22 12 NNE 1028,7 20 0,0
22.10.2018 01:00:00 14,6 12,8 13,8 9 5 23 12 N 1028,4 - 0,0
22.10.2018 00:00:00 14,6 12,3 13,5 13 7 24 13 N 1028,3 - 0,0
21.10.2018 23:00:00 14,4 12,4 12,5 12 6 22 12 N 1027,8 20 0,0
21.10.2018 22:00:00 14,0 12,0 12,7 5 3 14 7 N 1027,6 - 0,0
21.10.2018 21:00:00 14,6 11,6 13,5 8 4 15 8 N 1027,6 - 0,0
21.10.2018 20:00:00 14,8 10,0 14,2 3 1 8 4 NNE 1027,4 - 0,0
21.10.2018 19:00:00 15,2 10,4 15,2 5 3 14 8 NE 1027,2 - 0,0
21.10.2018 18:00:00 15,5 11,1 16,9 9 5 21 12 N 1027,2 - 0,0
21.10.2018 17:00:00 15,4 10,8 16,9 13 7 25 13 NNE 1027,4 15 0,0
21.10.2018 16:00:00 15,2 10,4 17,6 15 8 27 15 N 1027,7 - 0,0
21.10.2018 15:00:00 15,7 9,4 21,6 13 7 24 13 N 1028,0 - 0,0
21.10.2018 14:00:00 14,6 8,5 19,6 11 6 20 11 NNW 1028,1 4,0 0,0
21.10.2018 13:00:00 14,1 8,3 18,5 6 3 11 6 W 1028,6 - 0,0
21.10.2018 12:00:00 14,2 7,9 17,3 3 2 8 4 WSW 1028,8 - 0,0
21.10.2018 11:00:00 13,8 7,6 16,2 0 0 5 3 N 1029,1 3,0 0,0
21.10.2018 10:00:00 12,0 7,3 11,0 3 2 13 7 N 1029,2 - 0,0
21.10.2018 09:00:00 10,8 6,2 9,4 7 4 14 7 ESE 1028,6 - 0,0
21.10.2018 08:00:00 10,4 5,8 9,5 9 5 16 9 E 1028,3 - 0,0
21.10.2018 07:00:00 10,6 6,2 9,7 9 5 17 9 E 1028,6 - 0,0
21.10.2018 06:00:00 10,8 6,7 9,9 13 7 17 9 E 1029,0 - 0,0
21.10.2018 05:00:00 10,9 7,2 9,7 11 6 17 9 E 1029,2 20 0,0
21.10.2018 04:00:00 10,8 8,0 10,0 11 6 16 8 E 1029,9 - 0,0
21.10.2018 03:00:00 10,9 8,3 10,0 11 6 19 11 E 1030,0 - 0,0
21.10.2018 02:00:00 10,7 8,5 10,2 11 6 20 11 E 1030,6 10 0,0
21.10.2018 01:00:00 11,7 8,4 11,0 15 8 26 14 ENE 1030,8 - 0,0
21.10.2018 00:00:00 12,0 8,3 11,4 16 9 26 14 NE 1030,9 - 0,0
20.10.2018 23:00:00 12,1 8,0 11,5 19 10 30 16 ENE 1030,8 25 0,0
20.10.2018 22:00:00 12,2 8,1 11,6 20 11 32 17 ENE 1030,7 - 0,0
20.10.2018 21:00:00 12,0 7,9 11,3 14 8 28 15 NE 1030,9 - 0,0
20.10.2018 20:00:00 12,6 8,1 12,0 13 7 24 13 NE 1030,7 25 0,0
20.10.2018 19:00:00 13,5 8,1 12,9 11 6 21 11 NNE 1030,1 - 0,0
20.10.2018 18:00:00 15,0 8,5 16,8 10 5 23 12 NE 1030,0 - 0,0
20.10.2018 17:00:00 15,4 9,1 19,1 14 8 23 13 N 1030,4 20 0,0
20.10.2018 16:00:00 16,1 8,8 20,9 7 4 16 9 ESE 1030,7 - 0,0
20.10.2018 15:00:00 15,9 7,6 20,3 6 3 16 9 NNE 1031,1 - 0,0
20.10.2018 14:00:00 15,4 7,4 18,2 9 5 24 13 ENE 1031,9 15 0,0
20.10.2018 13:00:00 14,4 7,2 16,3 10 5 26 14 ENE 1032,3 - 0,0
20.10.2018 12:00:00 13,7 6,8 14,8 13 7 28 15 ENE 1032,3 - 0,0
20.10.2018 11:00:00 12,7 6,5 13,1 11 6 23 12 ENE 1032,3 20 0,0
20.10.2018 10:00:00 11,2 5,9 10,4 10 6 22 12 ENE 1032,0 - 0,0
20.10.2018 09:00:00 10,1 5,5 9,4 13 7 22 12 ENE 1031,1 - 0,0
20.10.2018 08:00:00 10,0 5,4 9,4 14 8 25 13 ENE 1030,4 - 0,0
20.10.2018 07:00:00 10,0 5,4 9,0 12 7 18 10 ENE 1030,0 - 0,0
20.10.2018 06:00:00 10,3 4,6 9,7 13 7 25 13 E 1029,3 - 0,0
20.10.2018 05:00:00 10,9 4,6 9,8 15 8 24 13 ENE 1029,1 20 0,0
20.10.2018 04:00:00 10,9 5,2 10,2 14 8 27 15 ENE 1028,8 - 0,0
20.10.2018 03:00:00 10,9 5,2 10,2 15 8 25 14 ENE 1028,6 - 0,0
20.10.2018 02:00:00 11,4 6,3 10,7 13 7 21 11 ENE 1028,6 - 0,0
20.10.2018 01:00:00 11,9 8,2 11,2 13 7 23 12 ENE 1028,3 - 0,0
20.10.2018 00:00:00 12,5 8,8 11,4 10 5 19 11 NNE 1028,3 - 0,0
19.10.2018 23:00:00 12,4 8,5 11,5 9 5 16 8 NE 1028,0 10 0,0
19.10.2018 22:00:00 12,5 8,4 11,7 8 5 17 9 NE 1027,6 - 0,0
19.10.2018 21:00:00 12,6 8,9 11,5 8 5 16 8 NNE 1027,2 - 0,0
19.10.2018 20:00:00 12,9 9,5 11,5 5 3 14 7 NNE 1026,6 10 0,0
19.10.2018 19:00:00 13,6 9,8 12,9 9 5 24 13 NE 1025,9 - 0,0
19.10.2018 18:00:00 14,9 9,3 16,5 10 5 26 14 NNE 1025,6 - 0,0
19.10.2018 17:00:00 15,9 8,9 18,6 14 7 27 15 NNE 1025,0 10 0,0
19.10.2018 16:00:00 16,7 8,9 17,9 9 5 21 11 ENE 1024,5 - 0,0
19.10.2018 15:00:00 17,0 8,7 19,5 10 5 23 13 ENE 1024,6 - 0,0
19.10.2018 14:00:00 16,0 9,0 17,7 11 6 25 14 NE 1024,8 - 0,0
19.10.2018 13:00:00 15,6 9,3 18,3 13 7 28 15 NE 1025,1 - 0,0
19.10.2018 12:00:00 14,2 10,0 15,5 9 5 28 15 NE 1025,2 - 0,0
19.10.2018 11:00:00 12,9 9,5 13,6 10 5 27 15 NE 1025,1 5 0,0
19.10.2018 10:00:00 12,0 9,4 11,6 14 8 30 16 ENE 1024,4 - 0,0
19.10.2018 09:00:00 11,4 9,3 10,7 15 8 24 13 ENE 1023,9 - 0,0
19.10.2018 08:00:00 11,2 9,5 10,4 13 7 22 12 NE 1023,8 - 0,0
19.10.2018 07:00:00 10,9 8,6 10,5 11 6 30 16 NE 1023,5 - 0,0
19.10.2018 06:00:00 11,1 8,3 10,7 18 10 31 17 NE 1023,5 - 0,0
19.10.2018 05:00:00 11,3 8,3 10,7 18 10 33 18 NE 1023,6 20 0,0
19.10.2018 04:00:00 11,5 8,5 11,0 21 12 34 18 ENE 1023,5 - 0,0
19.10.2018 03:00:00 11,8 8,5 11,3 21 11 34 19 ENE 1023,6 - 0,0
19.10.2018 02:00:00 11,9 8,9 11,4 18 10 32 17 ENE 1023,9 25 0,0
19.10.2018 01:00:00 12,3 9,7 11,7 15 8 27 15 ENE 1024,1 - 0,0
19.10.2018 00:00:00 12,5 9,9 12,0 13 7 29 16 NE 1024,2 - 0,0
18.10.2018 23:00:00 12,7 10,1 12,3 12 6 26 14 NE 1024,4 20 0,0
18.10.2018 22:00:00 13,2 10,0 12,7 13 7 27 15 NE 1024,0 - 0,0
18.10.2018 21:00:00 13,4 10,6 12,9 9 5 26 14 NE 1023,9 - 0,0
18.10.2018 20:00:00 14,0 10,8 13,4 7 4 20 11 NE 1023,6 - 0,0
18.10.2018 19:00:00 14,9 10,1 14,4 11 6 30 16 NE 1023,1 - 0,0
18.10.2018 18:00:00 15,9 10,2 16,1 13 7 37 20 NE 1023,0 - 0,0
18.10.2018 17:00:00 16,8 10,4 16,5 16 9 37 20 NE 1023,1 25 0,0
18.10.2018 16:00:00 17,0 10,4 17,0 18 10 40 22 ENE 1023,3 - 0,0
18.10.2018 15:00:00 16,9 10,3 18,4 13 7 32 18 ENE 1023,4 - 0,0
18.10.2018 14:00:00 16,9 11,2 16,6 15 8 36 19 ENE 1023,8 25 0,0
18.10.2018 13:00:00 16,3 11,0 17,4 19 10 38 20 NE 1024,1 - 0,0
18.10.2018 12:00:00 15,4 10,8 15,0 16 9 36 19 NE 1024,3 - 0,0
18.10.2018 11:00:00 14,3 11,1 14,6 11 6 29 16 ENE 1024,1 20 0,0
18.10.2018 10:00:00 14,0 10,8 13,7 9 5 23 12 ENE 1023,5 - 0,0
18.10.2018 09:00:00 13,7 10,9 13,3 10 6 29 16 ENE 1023,4 - 0,0
18.10.2018 08:00:00 13,6 11,6 13,3 11 6 32 17 NE 1023,2 - 0,0
18.10.2018 07:00:00 13,6 11,6 13,4 13 7 26 14 ENE 1022,8 - 0,0
18.10.2018 06:00:00 13,8 11,5 13,5 15 8 29 16 ENE 1022,5 - 0,0
18.10.2018 05:00:00 13,9 11,8 13,7 11 6 27 14 ENE 1022,6 20 0,0
18.10.2018 04:00:00 14,2 11,5 14,1 13 7 34 19 NE 1022,4 - 0,0
18.10.2018 03:00:00 14,4 11,2 14,3 18 10 34 18 NE 1022,1 - 0,0
18.10.2018 02:00:00 14,6 11,6 14,4 20 11 34 19 ENE 1021,9 20 0,0
18.10.2018 01:00:00 14,7 12,0 14,5 16 9 32 18 NE 1021,6 - 0,0
18.10.2018 00:00:00 14,6 12,1 14,5 16 9 31 17 NE 1021,6 - 0,0
17.10.2018 23:00:00 14,7 11,8 14,5 15 8 32 17 NE 1021,5 15 0,0
17.10.2018 22:00:00 14,6 11,9 14,5 14 8 29 16 NE 1021,3 - 0,0
17.10.2018 21:00:00 14,8 11,4 14,7 14 8 29 16 NE 1020,6 - 0,0
17.10.2018 20:00:00 14,9 12,0 14,8 11 6 26 14 NE 1020,0 15 0,0
17.10.2018 19:00:00 15,4 12,9 15,2 13 7 21 11 NNE 1019,4 - 0,0
17.10.2018 18:00:00 16,5 12,3 18,6 10 5 17 9 NNE 1018,8 - 0,0
17.10.2018 17:00:00 17,1 12,6 18,4 7 4 19 10 ENE 1018,8 - 0,0
17.10.2018 16:00:00 16,4 12,7 21,7 10 6 18 10 N 1018,9 - 0,0
17.10.2018 15:00:00 15,6 13,1 21,5 9 5 16 9 N 1018,9 - 0,0
17.10.2018 14:00:00 15,7 12,6 20,0 6 4 14 8 NNW 1019,4 0,8 0,0
17.10.2018 13:00:00 15,2 12,7 17,7 8 4 11 6 S 1019,8 - 0,0
17.10.2018 12:00:00 14,6 12,8 16,2 6 3 11 6 SSE 1019,7 - 0,0
17.10.2018 11:00:00 12,8 12,3 12,9 3 2 9 5 E 1019,7 0,3 0,0

tt = Température de l'air
td = dewpoint
tt 5cm = Température de l'air 5cm
ff = Vitesse du vent
fx = gusts
dd = Direction du vent
ppp = reduced air pressure
vv = visibility
rr = Quantités de précipitations

stations d'obs. à proximité